When you browse on this site, cookies collect data to enhance your experience and personalize the content and advertising you see.
Visit our Privacy Policy to learn more. By continuing to use the site, you agree to this use of cookies and data.
  • In Austria
  • List of Countries
  • For 7 days
  • Water Temperature
  • Weather Map
  • News
  • Weather Widgets
  • user-avatar
    Login

    Hourly Weather Lenin

    Today, 18 August, Sunday

    Time Temperature Precipitation Wind Pressure Humidity
    00:00 +14°C° 0 mm 1 mps 748 mmHg 88%
    01:00 +13°C° 0 mm 1 mps 749 mmHg 88%
    02:00 +13°C° 0 mm 1 mps 749 mmHg 86%
    03:00 +13°C° 0 mm 1 mps 749 mmHg 88%
    04:00 +13°C° 0 mm 2 mps 748 mmHg 89%
    05:00 +13°C° 0 mm 2 mps 748 mmHg 90%
    06:00 +15°C° 0 mm 2 mps 748 mmHg 84%
    07:00 +16°C° 0 mm 2 mps 748 mmHg 79%
    08:00 +19°C° 0 mm 1 mps 748 mmHg 72%
    09:00 +20°C° 0 mm 2 mps 748 mmHg 67%
    10:00 +21°C° 0 mm 2 mps 748 mmHg 62%
    11:00 +24°C° 0 mm 2 mps 748 mmHg 57%
    12:00 +25°C° 0 mm 2 mps 748 mmHg 55%
    13:00 +25°C° 0 mm 2 mps 748 mmHg 53%
    14:00 +26°C° 0 mm 3 mps 748 mmHg 52%
    15:00 +26°C° 0 mm 2 mps 748 mmHg 55%
    16:00 +26°C° 0 mm 2 mps 748 mmHg 58%
    17:00 +25°C° 0 mm 2 mps 748 mmHg 61%
    18:00 +23°C° 0 mm 1 mps 749 mmHg 67%
    19:00 +22°C° 0 mm 1 mps 749 mmHg 73%
    20:00 +20°C° 0 mm 1 mps 749 mmHg 79%
    21:00 +19°C° 0 mm 1 mps 749 mmHg 80%
    22:00 +18°C° 0 mm 2 mps 749 mmHg 81%
    23:00 +17°C° 0 mm 2 mps 749 mmHg 81%

    Tomorrow, 19 August, Monday

    Time Temperature Precipitation Wind Pressure Humidity
    00:00 +17°C° 0 mm 2 mps 749 mmHg 82%
    01:00 +16°C° 0 mm 2 mps 750 mmHg 83%
    02:00 +16°C° 0 mm 2 mps 750 mmHg 84%
    03:00 +16°C° 0 mm 2 mps 750 mmHg 84%
    04:00 +15°C° 0 mm 2 mps 749 mmHg 84%
    05:00 +15°C° 0 mm 2 mps 749 mmHg 84%
    06:00 +17°C° 0 mm 3 mps 750 mmHg 82%
    07:00 +18°C° 0 mm 3 mps 750 mmHg 80%
    08:00 +20°C° 0 mm 3 mps 750 mmHg 77%
    09:00 +22°C° 0 mm 3 mps 750 mmHg 73%
    10:00 +25°C° 0 mm 3 mps 750 mmHg 68%
    11:00 +27°C° 0 mm 3 mps 751 mmHg 63%
    12:00 +28°C° 0 mm 3 mps 751 mmHg 61%
    13:00 +29°C° 0 mm 3 mps 751 mmHg 59%
    14:00 +29°C° 0 mm 3 mps 751 mmHg 57%
    15:00 +29°C° 0.4 mm 3 mps 751 mmHg 61%
    16:00 +29°C° 0.4 mm 2 mps 751 mmHg 64%
    17:00 +29°C° 0.4 mm 2 mps 751 mmHg 68%
    18:00 +27°C° 0.2 mm 2 mps 751 mmHg 73%
    19:00 +25°C° 0.2 mm 2 mps 751 mmHg 78%
    20:00 +23°C° 0.2 mm 2 mps 751 mmHg 84%
    21:00 +23°C° 0.1 mm 2 mps 751 mmHg 85%
    22:00 +21°C° 0.1 mm 3 mps 751 mmHg 87%
    23:00 +21°C° 0.1 mm 3 mps 751 mmHg 89%

    Day after tomorrow, 20 August, Tuesday

    Time Temperature Precipitation Wind Pressure Humidity
    00:00 +20°C° 0.7 mm 2 mps 752 mmHg 89%
    01:00 +20°C° 0.7 mm 2 mps 752 mmHg 90%
    02:00 +19°C° 0.7 mm 2 mps 752 mmHg 91%
    03:00 +19°C° 0.2 mm 2 mps 752 mmHg 92%
    04:00 +19°C° 0.2 mm 2 mps 752 mmHg 93%
    05:00 +18°C° 0.2 mm 2 mps 752 mmHg 94%
    06:00 +19°C° 0 mm 2 mps 753 mmHg 91%
    07:00 +21°C° 0 mm 2 mps 753 mmHg 88%
    08:00 +23°C° 0 mm 2 mps 753 mmHg 86%
    09:00 +24°C° 0 mm 2 mps 753 mmHg 81%
    10:00 +25°C° 0 mm 2 mps 754 mmHg 77%
    11:00 +27°C° 0 mm 2 mps 754 mmHg 72%
    12:00 +27°C° 0.1 mm 2 mps 754 mmHg 70%
    13:00 +28°C° 0.1 mm 2 mps 754 mmHg 69%
    14:00 +28°C° 0.1 mm 2 mps 754 mmHg 67%
    15:00 +28°C° 0.7 mm 2 mps 754 mmHg 70%
    16:00 +27°C° 0.7 mm 2 mps 754 mmHg 74%
    17:00 +27°C° 0.7 mm 2 mps 754 mmHg 77%
    18:00 +25°C° 0.1 mm 2 mps 754 mmHg 82%
    19:00 +24°C° 0.1 mm 2 mps 754 mmHg 86%
    20:00 +21°C° 0.1 mm 2 mps 754 mmHg 91%
    21:00 +21°C° 0 mm 2 mps 754 mmHg 92%
    22:00 +21°C° 0 mm 1 mps 755 mmHg 93%
    23:00 +21°C° 0 mm 1 mps 755 mmHg 94%

    21 August, Wednesday

    Time Temperature Precipitation Wind Pressure Humidity
    00:00 +21°C° 0 mm 1 mps 755 mmHg 94%
    01:00 +21°C° 0 mm 1 mps 754 mmHg 95%
    02:00 +19°C° 0 mm 2 mps 754 mmHg 95%
    03:00 +20°C° 0 mm 1 mps 754 mmHg 95%
    04:00 +20°C° 0 mm 1 mps 754 mmHg 95%
    05:00 +20°C° 0 mm 1 mps 754 mmHg 95%
    06:00 +20°C° 0 mm 2 mps 754 mmHg 92%
    07:00 +21°C° 0 mm 2 mps 754 mmHg 88%
    08:00 +23°C° 0 mm 2 mps 754 mmHg 84%
    09:00 +25°C° 0 mm 2 mps 754 mmHg 76%
    10:00 +27°C° 0 mm 3 mps 754 mmHg 67%
    11:00 +29°C° 0 mm 3 mps 753 mmHg 59%
    12:00 +29°C° 0 mm 3 mps 753 mmHg 56%
    13:00 +30°C° 0 mm 3 mps 753 mmHg 52%
    14:00 +31°C° 0 mm 3 mps 753 mmHg 49%
    15:00 +31°C° 0 mm 3 mps 752 mmHg 53%
    16:00 +30°C° 0 mm 2 mps 752 mmHg 56%
    17:00 +30°C° 0 mm 2 mps 752 mmHg 60%
    18:00 +28°C° 0 mm 2 mps 752 mmHg 63%
    19:00 +26°C° 0 mm 2 mps 752 mmHg 66%
    20:00 +24°C° 0 mm 2 mps 752 mmHg 70%
    21:00 +23°C° 0 mm 2 mps 752 mmHg 75%
    22:00 +21°C° 0 mm 2 mps 752 mmHg 80%
    23:00 +21°C° 0 mm 2 mps 753 mmHg 85%

    22 August, Thursday

    Time Temperature Precipitation Wind Pressure Humidity
    00:00 +20°C° 0.2 mm 3 mps 753 mmHg 88%
    01:00 +19°C° 0.2 mm 3 mps 753 mmHg 92%
    02:00 +19°C° 0.2 mm 4 mps 753 mmHg 95%
    03:00 +18°C° 0.3 mm 4 mps 753 mmHg 94%
    04:00 +18°C° 0.3 mm 4 mps 753 mmHg 94%
    05:00 +17°C° 0.3 mm 4 mps 753 mmHg 93%
    06:00 +17°C° 0 mm 4 mps 754 mmHg 91%
    07:00 +18°C° 0 mm 4 mps 754 mmHg 89%
    08:00 +18°C° 0 mm 4 mps 754 mmHg 87%
    09:00 +18°C° 0 mm 4 mps 754 mmHg 85%
    10:00 +18°C° 0 mm 4 mps 755 mmHg 84%
    11:00 +18°C° 0 mm 4 mps 755 mmHg 82%
    12:00 +19°C° 0 mm 4 mps 755 mmHg 80%
    13:00 +19°C° 0 mm 4 mps 755 mmHg 78%
    14:00 +20°C° 0 mm 4 mps 755 mmHg 76%
    15:00 +20°C° 0 mm 3 mps 755 mmHg 76%
    16:00 +20°C° 0 mm 3 mps 755 mmHg 76%
    17:00 +20°C° 0 mm 3 mps 755 mmHg 76%
    18:00 +20°C° 0 mm 3 mps 755 mmHg 78%
    19:00 +19°C° 0 mm 2 mps 755 mmHg 81%
    20:00 +18°C° 0 mm 2 mps 755 mmHg 84%
    21:00 +18°C° 0 mm 2 mps 755 mmHg 85%
    22:00 +17°C° 0 mm 2 mps 755 mmHg 86%
    23:00 +17°C° 0 mm 2 mps 755 mmHg 88%

    23 August, Friday

    Time Temperature Precipitation Wind Pressure Humidity
    00:00 +16°C° 0 mm 2 mps 756 mmHg 89%
    01:00 +16°C° 0 mm 2 mps 756 mmHg 90%
    02:00 +16°C° 0 mm 2 mps 756 mmHg 91%
    03:00 +14°C° 0 mm 3 mps 756 mmHg 91%
    04:00 +14°C° 0 mm 3 mps 756 mmHg 91%
    05:00 +14°C° 0 mm 3 mps 756 mmHg 91%
    06:00 +16°C° 0 mm 3 mps 756 mmHg 87%
    07:00 +17°C° 0 mm 3 mps 756 mmHg 83%
    08:00 +18°C° 0 mm 3 mps 756 mmHg 79%
    09:00 +19°C° 0 mm 4 mps 756 mmHg 73%
    10:00 +20°C° 0 mm 4 mps 756 mmHg 66%
    11:00 +22°C° 0 mm 4 mps 756 mmHg 60%
    12:00 +22°C° 0 mm 4 mps 756 mmHg 58%
    13:00 +22°C° 0 mm 4 mps 756 mmHg 56%
    14:00 +23°C° 0 mm 4 mps 756 mmHg 55%
    15:00 +22°C° 0 mm 4 mps 756 mmHg 57%
    16:00 +22°C° 0 mm 4 mps 756 mmHg 59%
    17:00 +21°C° 0 mm 4 mps 756 mmHg 61%
    18:00 +20°C° 0 mm 3 mps 756 mmHg 68%
    19:00 +18°C° 0 mm 3 mps 757 mmHg 74%
    20:00 +16°C° 0 mm 3 mps 757 mmHg 81%
    21:00 +14°C° 0 mm 3 mps 757 mmHg 84%
    22:00 +15°C° 0 mm 2 mps 757 mmHg 87%
    23:00 +14°C° 0 mm 2 mps 758 mmHg 90%
    Show more